UAE17K OMDB-LCLK

Flight info

Callsign UAE17K
Flight time 4h 28m
Altitude 37000
Route ANVIX L223 TARDI N629 BOTAM Y855 LAKLU/N0497F360 Q204 NALKI G652 TOKRA DCT ALROK DCT BOSOB DCT ITRUX Y511 ASMIS/N0490F380 Y511 PMA Z712 WEJ L677 GESON Q777 RASDA M28 BETID
Aircraft B77W/H-SDE1E2E3FGHIJ2J3J4J5M1RWXY/LB1D1

Departure

Time 2026-05-04 10:13
Airport Dubai International Airport (OMDB)

Arrival

Time 2026-05-04 14:42
Airport Larnaca International Airport (LCLK)
Time Latitude Longitude Altitude Speed Heading
2026-05-04 10:00 25.24923 55.35826 26 ft 0 kts 31°
2026-05-04 10:04 25.24877 55.35744 32 ft 0 kts 123°
2026-05-04 10:05 25.24877 55.35745 32 ft 0 kts 123°
2026-05-04 10:06 25.24875 55.35747 32 ft 0 kts 122°
2026-05-04 10:06 25.24869 55.35758 32 ft 8 kts 122°
2026-05-04 10:06 25.24806 55.35870 31 ft 20 kts 122°
2026-05-04 10:08 25.24472 55.36629 32 ft 19 kts 55°
2026-05-04 10:08 25.24573 55.36718 30 ft 19 kts 32°
2026-05-04 10:08 25.24684 55.36793 26 ft 19 kts 31°
2026-05-04 10:08 25.24795 55.36869 27 ft 19 kts 44°
2026-05-04 10:09 25.24778 55.36988 28 ft 17 kts 120°
2026-05-04 10:09 25.24717 55.37097 28 ft 17 kts 122°
2026-05-04 10:09 25.24648 55.37220 28 ft 23 kts 122°
2026-05-04 10:09 25.24547 55.37400 28 ft 32 kts 122°
2026-05-04 10:10 25.24455 55.37564 27 ft 21 kts 122°
2026-05-04 10:10 25.24378 55.37700 28 ft 21 kts 122°
2026-05-04 10:10 25.24364 55.37832 29 ft 19 kts 44°
2026-05-04 10:10 25.24467 55.37919 35 ft 19 kts 35°
2026-05-04 10:11 25.24577 55.38003 30 ft 17 kts 34°
2026-05-04 10:11 25.24635 55.38044 30 ft 0 kts 31°
2026-05-04 10:12 25.24640 55.38047 30 ft 5 kts 31°
2026-05-04 10:12 25.24710 55.38094 34 ft 12 kts 31°
2026-05-04 10:12 25.24781 55.38071 35 ft 12 kts 306°
2026-05-04 10:12 25.24791 55.38053 35 ft 0 kts 303°
2026-05-04 10:13 25.24852 55.37946 35 ft 55 kts 301°
2026-05-04 10:13 25.25212 55.37296 37 ft 141 kts 301°
2026-05-04 10:13 25.25824 55.36194 356 ft 181 kts 303°
2026-05-04 10:13 25.26498 55.34997 1218 ft 184 kts 301°
2026-05-04 10:14 25.27149 55.33825 2210 ft 182 kts 300°
2026-05-04 10:14 25.27824 55.32592 2782 ft 188 kts 301°
2026-05-04 10:16 25.26641 55.22562 7006 ft 217 kts 248°
2026-05-04 10:16 25.25998 55.21068 7556 ft 223 kts 248°
2026-05-04 10:16 25.25302 55.19434 7791 ft 244 kts 248°
2026-05-04 10:16 25.24436 55.17786 8252 ft 256 kts 229°
2026-05-04 10:17 25.22881 55.16748 8754 ft 274 kts 194°
2026-05-04 10:17 25.20957 55.16680 9297 ft 283 kts 176°
2026-05-04 10:19 25.12388 55.29821 13897 ft 330 kts 117°
2026-05-04 10:19 25.11303 55.32080 14588 ft 336 kts 117°
2026-05-04 10:19 25.10228 55.34386 15369 ft 339 kts 114°
2026-05-04 10:19 25.09252 55.36761 16184 ft 342 kts 112°
2026-05-04 10:20 25.08282 55.39174 16966 ft 347 kts 112°
2026-05-04 10:20 25.07289 55.41616 17733 ft 352 kts 112°
2026-05-04 10:20 25.06310 55.44112 18173 ft 369 kts 111°
2026-05-04 10:20 25.05284 55.46809 18326 ft 393 kts 111°
2026-05-04 10:21 25.04194 55.49673 18483 ft 416 kts 111°
2026-05-04 10:21 25.03037 55.52685 18656 ft 436 kts 111°
2026-05-04 10:21 25.01822 55.55801 19031 ft 448 kts 113°
2026-05-04 10:21 25.00345 55.58854 19532 ft 456 kts 120°
2026-05-04 10:22 24.96930 55.64800 20852 ft 461 kts 122°
2026-05-04 10:22 24.95251 55.67827 21501 ft 464 kts 121°
2026-05-04 10:22 24.93579 55.70888 22102 ft 469 kts 122°
2026-05-04 10:23 24.91752 55.73818 22674 ft 473 kts 127°
2026-05-04 10:23 24.89754 55.76716 23268 ft 476 kts 128°
2026-05-04 10:25 24.75031 55.97449 26169 ft 505 kts 140°
2026-05-04 10:25 24.72398 55.99946 26546 ft 508 kts 141°
2026-05-04 10:25 24.69731 56.02528 26964 ft 512 kts 140°
2026-05-04 10:25 24.67102 56.05190 27353 ft 516 kts 139°
2026-05-04 10:26 24.64474 56.07905 27742 ft 520 kts 139°
2026-05-04 10:26 24.61831 56.10632 28122 ft 523 kts 139°
2026-05-04 10:26 24.59164 56.13367 28485 ft 526 kts 139°
2026-05-04 10:26 24.56523 56.16180 28802 ft 531 kts 136°
2026-05-04 10:27 24.54065 56.19233 29126 ft 535 kts 133°
2026-05-04 10:27 24.51680 56.22317 29388 ft 539 kts 132°
2026-05-04 10:27 24.49249 56.25470 29637 ft 543 kts 132°
2026-05-04 10:27 24.46795 56.28634 29922 ft 545 kts 133°
2026-05-04 10:28 24.44328 56.31793 30260 ft 543 kts 133°
2026-05-04 10:28 24.41867 56.34923 30661 ft 541 kts 133°
2026-05-04 10:28 24.39405 56.38048 31046 ft 540 kts 133°
2026-05-04 10:28 24.36951 56.41159 31424 ft 540 kts 133°
2026-05-04 10:29 24.34494 56.44274 31758 ft 539 kts 133°
2026-05-04 10:29 24.32043 56.47382 32159 ft 538 kts 133°
2026-05-04 10:29 24.29654 56.50455 32565 ft 537 kts 131°
2026-05-04 10:29 24.27400 56.53721 32962 ft 537 kts 128°
2026-05-04 10:30 24.25215 56.57039 33325 ft 537 kts 127°
2026-05-04 10:30 24.23044 56.60365 33654 ft 538 kts 127°
2026-05-04 10:30 24.20862 56.63697 33970 ft 537 kts 127°
2026-05-04 10:30 24.18676 56.67012 34330 ft 535 kts 128°
2026-05-04 10:31 24.16494 56.70303 34722 ft 533 kts 128°
2026-05-04 10:31 24.15049 56.72474 34965 ft 532 kts 128°
2026-05-04 10:32 24.00216 56.89824 35751 ft 517 kts 160°
2026-05-04 10:33 23.96842 56.91070 35765 ft 508 kts 171°
2026-05-04 10:33 23.92277 56.92203 35767 ft 509 kts 171°
2026-05-04 10:33 23.85371 56.93942 35786 ft 511 kts 171°
2026-05-04 10:34 23.78452 56.95768 35776 ft 512 kts 170°
2026-05-04 10:34 23.72700 56.97315 35791 ft 513 kts 170°
2026-05-04 10:35 23.65771 56.99177 35803 ft 512 kts 170°
2026-05-04 10:35 23.57726 57.01331 35804 ft 512 kts 170°
2026-05-04 10:36 23.51977 57.02865 35821 ft 511 kts 169°
2026-05-04 10:36 23.45068 57.04710 35839 ft 510 kts 170°
2026-05-04 10:37 23.38113 57.05924 35832 ft 503 kts 182°
2026-05-04 10:37 23.31206 57.05342 35847 ft 495 kts 196°
2026-05-04 10:39 23.07785 56.99709 35862 ft 494 kts 196°
2026-05-04 10:40 23.01064 56.98140 35841 ft 494 kts 195°
2026-05-04 10:40 22.94395 56.96557 35858 ft 494 kts 196°
2026-05-04 10:41 22.87686 56.94949 35834 ft 491 kts 198°
2026-05-04 10:41 22.84530 56.93655 35833 ft 481 kts 214°
2026-05-04 10:41 22.81898 56.91484 35849 ft 474 kts 228°
2026-05-04 10:41 22.79849 56.88725 35852 ft 469 kts 242°
2026-05-04 10:42 22.78341 56.85622 35855 ft 466 kts 246°
2026-05-04 10:42 22.75437 56.79301 35812 ft 470 kts 246°
2026-05-04 10:43 22.72492 56.73021 35820 ft 472 kts 245°
2026-05-04 10:45 22.60387 56.47846 35780 ft 471 kts 244°
2026-05-04 10:45 22.57356 56.41560 35787 ft 471 kts 244°
2026-05-04 10:46 22.54325 56.35288 35784 ft 470 kts 244°
2026-05-04 10:46 22.51289 56.29029 35778 ft 470 kts 244°
2026-05-04 10:47 22.48270 56.22814 35777 ft 470 kts 244°
2026-05-04 10:47 22.45233 56.16564 35780 ft 470 kts 244°
2026-05-04 10:49 22.33052 55.91631 35763 ft 470 kts 244°
2026-05-04 10:50 22.29985 55.85399 35763 ft 470 kts 244°
2026-05-04 10:52 22.17758 55.60479 35753 ft 470 kts 248°
2026-05-04 10:52 22.15723 55.53822 35758 ft 467 kts 258°
2026-05-04 10:54 22.15132 55.50384 35753 ft 466 kts 264°
2026-05-04 10:56 22.14456 55.42021 35742 ft 466 kts 266°
2026-05-04 10:57 22.13931 55.35057 35743 ft 466 kts 266°
2026-05-04 10:57 22.13376 55.28088 35745 ft 466 kts 265°
2026-05-04 10:58 22.12801 55.21124 35736 ft 466 kts 265°
2026-05-04 10:58 22.12222 55.14207 35736 ft 466 kts 265°
2026-05-04 10:59 22.11636 55.07244 35733 ft 466 kts 265°
2026-05-04 10:59 22.11049 55.00281 35725 ft 466 kts 265°
2026-05-04 11:00 22.10462 54.93364 35730 ft 466 kts 265°
2026-05-04 11:02 22.08077 54.65546 35734 ft 466 kts 265°
2026-05-04 11:05 22.03482 54.13493 35735 ft 467 kts 265°
2026-05-04 11:06 22.02855 54.06526 35738 ft 467 kts 265°
2026-05-04 11:06 22.02228 53.99603 35742 ft 467 kts 265°
2026-05-04 11:10 21.97751 53.51068 35743 ft 464 kts 265°
2026-05-04 11:12 21.95137 53.23424 35744 ft 465 kts 265°
2026-05-04 11:12 21.94478 53.16543 35740 ft 465 kts 265°
2026-05-04 11:13 21.93812 53.09612 35742 ft 465 kts 265°
2026-05-04 11:13 21.93144 53.02681 35747 ft 465 kts 265°
2026-05-04 11:14 21.92472 52.95748 35745 ft 465 kts 264°
2026-05-04 11:16 21.90563 52.68046 35747 ft 465 kts 275°
2026-05-04 11:16 21.91629 52.61232 35750 ft 465 kts 281°
2026-05-04 11:17 21.92926 52.54412 35755 ft 465 kts 281°
2026-05-04 11:19 21.97949 52.27190 35750 ft 463 kts 280°
2026-05-04 11:19 21.99186 52.20381 35749 ft 463 kts 280°
2026-05-04 11:20 22.00423 52.13564 35748 ft 463 kts 280°
2026-05-04 11:20 22.01648 52.06798 35751 ft 463 kts 280°
2026-05-04 11:22 22.06557 51.79512 35747 ft 463 kts 280°
2026-05-04 11:23 22.07769 51.72736 35753 ft 463 kts 280°
2026-05-04 11:25 22.12010 51.48879 35754 ft 464 kts 280°
2026-05-04 11:25 22.13220 51.42039 35770 ft 464 kts 280°
2026-05-04 11:27 22.18610 51.11338 35753 ft 463 kts 279°
2026-05-04 11:28 22.19801 51.04509 35758 ft 463 kts 279°
2026-05-04 11:28 22.20988 50.97680 35756 ft 463 kts 279°
2026-05-04 11:29 22.22165 50.90892 35754 ft 463 kts 279°
2026-05-04 11:29 22.23347 50.84062 35767 ft 463 kts 279°
2026-05-04 11:33 22.31505 50.36418 35764 ft 462 kts 279°
2026-05-04 11:33 22.32663 50.29584 35772 ft 463 kts 279°
2026-05-04 11:34 22.33818 50.22750 35759 ft 462 kts 279°
2026-05-04 11:34 22.34969 50.15923 35760 ft 462 kts 279°
2026-05-04 11:35 22.36117 50.09094 35758 ft 462 kts 279°
2026-05-04 11:35 22.37252 50.02323 35758 ft 461 kts 279°
2026-05-04 11:36 22.38392 49.95506 35762 ft 461 kts 279°
2026-05-04 11:36 22.39529 49.88686 35766 ft 461 kts 279°
2026-05-04 11:37 22.40656 49.81913 35769 ft 461 kts 279°
2026-05-04 11:37 22.41787 49.75089 35770 ft 461 kts 279°
2026-05-04 11:38 22.42918 49.68257 35765 ft 462 kts 279°
2026-05-04 11:38 22.44045 49.61421 35761 ft 462 kts 279°
2026-05-04 11:39 22.45166 49.54613 35769 ft 463 kts 279°
2026-05-04 11:41 22.49090 49.30617 35761 ft 463 kts 278°
2026-05-04 11:41 22.50196 49.23808 35778 ft 463 kts 278°
2026-05-04 11:42 22.51308 49.16949 35767 ft 463 kts 278°
2026-05-04 11:42 22.52416 49.10094 35769 ft 462 kts 278°
2026-05-04 11:43 22.53520 49.03245 35762 ft 462 kts 278°
2026-05-04 11:43 22.54611 48.96452 35768 ft 462 kts 278°
2026-05-04 11:44 22.55709 48.89604 35765 ft 462 kts 278°
2026-05-04 11:44 22.56803 48.82759 35771 ft 462 kts 278°
2026-05-04 11:45 22.57895 48.75907 35766 ft 462 kts 278°
2026-05-04 11:45 22.58977 48.69099 35774 ft 462 kts 278°
2026-05-04 11:46 22.60063 48.62246 35763 ft 462 kts 278°
2026-05-04 11:46 22.61144 48.55404 35768 ft 461 kts 278°
2026-05-04 11:47 22.62223 48.48561 35769 ft 461 kts 278°
2026-05-04 11:47 22.63291 48.41765 35770 ft 461 kts 278°
2026-05-04 11:48 22.64363 48.34922 35772 ft 461 kts 278°
2026-05-04 11:48 22.65432 48.28078 35765 ft 462 kts 278°
2026-05-04 11:49 22.66500 48.21221 35776 ft 462 kts 277°
2026-05-04 11:49 22.67566 48.14363 35773 ft 462 kts 277°
2026-05-04 11:50 22.68621 48.07552 35769 ft 462 kts 277°
2026-05-04 11:50 22.69510 48.00678 35766 ft 460 kts 274°
2026-05-04 11:51 22.70073 47.93781 35770 ft 460 kts 273°
2026-05-04 11:51 22.70621 47.86875 35772 ft 460 kts 273°
2026-05-04 11:52 22.71179 47.80018 35773 ft 460 kts 273°
2026-05-04 11:52 22.71747 47.73110 35777 ft 461 kts 273°
2026-05-04 11:53 22.72314 47.66193 35782 ft 461 kts 273°
2026-05-04 11:53 22.72879 47.59273 35795 ft 461 kts 273°
2026-05-04 11:55 22.75100 47.31623 35805 ft 461 kts 273°
2026-05-04 11:56 22.75644 47.24750 35818 ft 461 kts 273°
2026-05-04 11:56 22.76191 47.17825 35821 ft 461 kts 273°
2026-05-04 11:57 22.76742 47.10899 35819 ft 461 kts 273°
2026-05-04 11:57 22.77297 47.03973 35840 ft 461 kts 273°
2026-05-04 11:58 22.77844 46.97097 35846 ft 461 kts 273°
2026-05-04 11:58 22.78391 46.90176 35836 ft 461 kts 273°
2026-05-04 11:59 22.78934 46.83257 35841 ft 460 kts 273°
2026-05-04 11:59 22.79474 46.76352 35847 ft 460 kts 273°
2026-05-04 12:00 22.80006 46.69497 35847 ft 459 kts 273°
2026-05-04 12:00 22.80538 46.62603 35854 ft 459 kts 272°
2026-05-04 12:01 22.81068 46.55700 35852 ft 459 kts 273°
2026-05-04 12:02 22.82888 46.31605 35858 ft 458 kts 272°
2026-05-04 12:03 22.83394 46.24720 35855 ft 458 kts 272°
2026-05-04 12:03 22.83897 46.17842 35856 ft 458 kts 272°
2026-05-04 12:04 22.84397 46.10965 35857 ft 458 kts 272°
2026-05-04 12:04 22.84893 46.04126 35851 ft 458 kts 272°
2026-05-04 12:05 22.85389 45.97236 35852 ft 458 kts 272°
2026-05-04 12:05 22.85881 45.90349 35863 ft 458 kts 272°
2026-05-04 12:06 22.86368 45.83511 35847 ft 458 kts 272°
2026-05-04 12:06 22.86853 45.76635 35846 ft 457 kts 272°
2026-05-04 12:07 22.87336 45.69770 35861 ft 456 kts 272°
2026-05-04 12:07 22.87814 45.62910 35858 ft 456 kts 272°
2026-05-04 12:08 22.88287 45.56101 35857 ft 456 kts 272°
2026-05-04 12:08 22.88759 45.49252 35850 ft 456 kts 272°
2026-05-04 12:09 22.89228 45.42399 35849 ft 456 kts 272°
2026-05-04 12:09 22.89695 45.35545 35872 ft 455 kts 272°
2026-05-04 12:10 22.90155 45.28736 35954 ft 457 kts 272°
2026-05-04 12:10 22.90386 45.25303 36278 ft 456 kts 272°
2026-05-04 12:10 22.90615 45.21893 36674 ft 453 kts 272°
2026-05-04 12:11 22.90843 45.18494 37057 ft 450 kts 271°
2026-05-04 12:11 22.91068 45.15115 37390 ft 449 kts 271°
2026-05-04 12:11 22.91293 45.11742 37686 ft 448 kts 271°
2026-05-04 12:11 22.91516 45.08366 37780 ft 450 kts 271°
2026-05-04 12:12 22.91964 45.01578 37861 ft 450 kts 271°
2026-05-04 12:12 22.92405 44.94871 37861 ft 447 kts 271°
2026-05-04 12:14 22.94302 44.68145 37879 ft 447 kts 277°
2026-05-04 12:15 22.95836 44.61580 37872 ft 452 kts 285°
2026-05-04 12:15 22.97864 44.55114 37875 ft 453 kts 285°
2026-05-04 12:16 22.99898 44.48637 37870 ft 454 kts 285°
2026-05-04 12:16 23.01897 44.42193 37871 ft 454 kts 285°
2026-05-04 12:17 23.03897 44.35701 37869 ft 453 kts 284°
2026-05-04 12:17 23.07289 44.24653 37868 ft 451 kts 284°
2026-05-04 12:18 23.11239 44.11750 37869 ft 449 kts 284°
2026-05-04 12:18 23.15166 43.98886 37913 ft 447 kts 284°
2026-05-04 12:19 23.19042 43.86146 37894 ft 446 kts 284°
2026-05-04 12:19 23.22920 43.73356 37926 ft 445 kts 284°
2026-05-04 12:20 23.26778 43.60592 37927 ft 444 kts 284°
2026-05-04 12:20 23.30619 43.47832 37945 ft 443 kts 284°
2026-05-04 12:21 23.34415 43.35163 37958 ft 443 kts 283°
2026-05-04 12:21 23.38225 43.22411 37975 ft 443 kts 283°
2026-05-04 12:22 23.42019 43.09658 37990 ft 443 kts 283°
2026-05-04 12:22 23.45787 42.96885 38002 ft 443 kts 283°
2026-05-04 12:23 23.49522 42.84188 38003 ft 443 kts 283°
2026-05-04 12:23 23.53283 42.71388 37996 ft 443 kts 283°
2026-05-04 12:24 23.57062 42.58593 37994 ft 444 kts 283°
2026-05-04 12:24 23.60829 42.45779 38007 ft 443 kts 283°
2026-05-04 12:25 23.64553 42.33070 38000 ft 443 kts 282°
2026-05-04 12:25 23.69428 42.16226 38009 ft 443 kts 282°
2026-05-04 12:26 23.94342 41.30288 37987 ft 439 kts 282°
2026-05-04 12:26 24.14838 40.55983 37713 ft 432 kts 280°
2026-05-04 12:26 24.23265 40.22374 37540 ft 427 kts 279°
2026-05-04 12:27 24.23451 40.21608 37543 ft 426 kts 280°
2026-05-04 12:27 24.24647 40.18618 37729 ft 440 kts 298°
2026-05-04 12:27 24.26814 40.16150 37848 ft 461 kts 314°
2026-05-04 12:28 24.29467 40.14106 37954 ft 470 kts 318°
2026-05-04 12:28 24.32214 40.12125 37953 ft 474 kts 317°
2026-05-04 12:28 24.36973 40.07335 37950 ft 458 kts 300°
2026-05-04 12:29 24.40252 40.01517 37977 ft 449 kts 290°
2026-05-04 12:29 24.43033 39.95393 37959 ft 448 kts 289°
2026-05-04 12:30 24.45837 39.89280 37947 ft 448 kts 290°
2026-05-04 12:30 24.48700 39.83211 37947 ft 447 kts 290°
2026-05-04 12:31 24.51557 39.77173 37948 ft 444 kts 290°
2026-05-04 12:31 24.54942 39.71505 37943 ft 453 kts 302°
2026-05-04 12:32 24.62050 39.64466 37973 ft 465 kts 315°
2026-05-04 12:33 24.67329 39.60344 37970 ft 465 kts 316°
2026-05-04 12:33 24.72583 39.56227 37983 ft 463 kts 315°
2026-05-04 12:34 24.77757 39.52115 37959 ft 461 kts 315°
2026-05-04 12:34 24.82938 39.47968 37948 ft 460 kts 315°
2026-05-04 12:35 24.88103 39.43827 37962 ft 459 kts 315°
2026-05-04 12:35 24.93260 39.39689 37950 ft 458 kts 315°
2026-05-04 12:36 24.98414 39.35551 37949 ft 458 kts 315°
2026-05-04 12:36 25.03539 39.31434 37957 ft 459 kts 314°
2026-05-04 12:37 25.08703 39.27280 37949 ft 460 kts 314°
2026-05-04 12:37 25.13880 39.23111 37952 ft 461 kts 314°
2026-05-04 12:38 25.19014 39.18896 37964 ft 456 kts 310°
2026-05-04 12:38 25.23366 39.14010 37954 ft 445 kts 301°
2026-05-04 12:39 25.26919 39.08516 37925 ft 437 kts 295°
2026-05-04 12:39 25.30194 39.02860 37927 ft 436 kts 295°
2026-05-04 12:40 25.33460 38.97211 37960 ft 436 kts 295°
2026-05-04 12:40 25.36726 38.91598 37917 ft 438 kts 295°
2026-05-04 12:41 25.40026 38.85937 37927 ft 439 kts 295°
2026-05-04 12:41 25.43332 38.80269 37913 ft 438 kts 295°
2026-05-04 12:42 25.46632 38.74606 37899 ft 437 kts 295°
2026-05-04 12:42 25.49900 38.68987 37895 ft 436 kts 295°
2026-05-04 12:43 25.53179 38.63346 37916 ft 435 kts 295°
2026-05-04 12:43 25.56448 38.57709 37902 ft 434 kts 295°
2026-05-04 12:44 25.59708 38.52084 37896 ft 434 kts 294°
2026-05-04 12:44 25.62961 38.46462 37893 ft 433 kts 294°
2026-05-04 12:45 25.66187 38.40882 37892 ft 433 kts 294°
2026-05-04 12:45 25.69433 38.35259 37907 ft 433 kts 294°
2026-05-04 12:46 25.72680 38.29627 37901 ft 434 kts 294°
2026-05-04 12:46 25.75931 38.23983 37897 ft 434 kts 294°
2026-05-04 12:47 25.79156 38.18379 37895 ft 434 kts 294°
2026-05-04 12:47 25.82401 38.12730 37887 ft 434 kts 294°
2026-05-04 12:48 25.85649 38.07071 37897 ft 435 kts 294°
2026-05-04 12:48 25.88903 38.01392 37906 ft 436 kts 294°
2026-05-04 12:49 25.92136 37.95746 37914 ft 436 kts 294°
2026-05-04 12:49 25.95396 37.90045 37932 ft 438 kts 295°
2026-05-04 12:50 25.98545 37.84273 37923 ft 432 kts 288°
2026-05-04 12:50 26.00668 37.78098 37940 ft 425 kts 281°
2026-05-04 12:51 26.01850 37.71759 37940 ft 420 kts 273°
2026-05-04 12:51 26.02680 37.65321 37936 ft 422 kts 273°
2026-05-04 12:52 26.03537 37.58855 37925 ft 423 kts 274°
2026-05-04 12:52 26.04417 37.52391 37962 ft 423 kts 274°
2026-05-04 12:53 26.05295 37.45898 37954 ft 425 kts 274°
2026-05-04 12:53 26.06151 37.39434 37930 ft 425 kts 273°
2026-05-04 12:54 26.07011 37.32940 37920 ft 423 kts 273°
2026-05-04 12:54 26.07865 37.26481 37927 ft 422 kts 273°
2026-05-04 12:55 26.08715 37.20035 37929 ft 420 kts 273°
2026-05-04 12:55 26.09552 37.13659 37919 ft 419 kts 273°
2026-05-04 12:56 26.10390 37.07252 37931 ft 417 kts 273°
2026-05-04 12:56 26.11223 37.00861 37931 ft 417 kts 273°
2026-05-04 12:57 26.12053 36.94471 37930 ft 417 kts 273°
2026-05-04 12:57 26.12874 36.88121 37897 ft 417 kts 273°
2026-05-04 12:58 26.13698 36.81740 37930 ft 417 kts 273°
2026-05-04 12:58 26.14520 36.75343 37929 ft 418 kts 273°
2026-05-04 12:59 26.15340 36.68935 37933 ft 419 kts 273°
2026-05-04 12:59 26.16154 36.62560 37927 ft 419 kts 273°
2026-05-04 13:00 26.16971 36.56138 37936 ft 419 kts 273°
2026-05-04 13:00 26.18639 36.49876 37957 ft 431 kts 289°
2026-05-04 13:01 26.21816 36.44122 37932 ft 447 kts 302°
2026-05-04 13:01 26.26154 36.39089 37937 ft 451 kts 306°
2026-05-04 13:02 26.30550 36.34172 37960 ft 450 kts 305°
2026-05-04 13:02 26.34927 36.29199 37942 ft 448 kts 305°
2026-05-04 13:03 26.39249 36.24223 37951 ft 446 kts 304°
2026-05-04 13:03 26.43542 36.19257 37927 ft 444 kts 304°
2026-05-04 13:04 26.47821 36.14303 37926 ft 443 kts 304°
2026-05-04 13:04 26.52058 36.09394 37928 ft 442 kts 304°
2026-05-04 13:05 26.56322 36.04447 37948 ft 442 kts 304°
2026-05-04 13:05 26.60590 35.99492 37949 ft 443 kts 304°
2026-05-04 13:06 26.64858 35.94530 37950 ft 443 kts 304°
2026-05-04 13:06 26.69108 35.89585 37945 ft 444 kts 304°
2026-05-04 13:07 26.73390 35.84597 37947 ft 444 kts 304°
2026-05-04 13:07 26.77671 35.79604 37945 ft 444 kts 304°
2026-05-04 13:08 26.81949 35.74611 37959 ft 444 kts 304°
2026-05-04 13:08 26.86218 35.69622 37944 ft 444 kts 304°
2026-05-04 13:09 26.90452 35.64669 37946 ft 443 kts 304°
2026-05-04 13:09 26.94707 35.59683 37946 ft 442 kts 304°
2026-05-04 13:10 26.98956 35.54698 37944 ft 442 kts 304°
2026-05-04 13:10 27.03200 35.49713 38016 ft 441 kts 304°
2026-05-04 13:11 27.07413 35.44757 37949 ft 442 kts 304°
2026-05-04 13:11 27.11657 35.39762 37938 ft 442 kts 304°
2026-05-04 13:12 27.15891 35.34773 37955 ft 441 kts 304°
2026-05-04 13:12 27.20119 35.29783 37940 ft 441 kts 304°
2026-05-04 13:13 27.24312 35.24829 37943 ft 440 kts 304°
2026-05-04 13:13 27.28531 35.19838 37941 ft 440 kts 304°
2026-05-04 13:14 27.32748 35.14844 37943 ft 440 kts 304°
2026-05-04 13:14 27.36961 35.09849 37937 ft 440 kts 304°
2026-05-04 13:15 27.41174 35.04848 37977 ft 440 kts 304°
2026-05-04 13:15 27.45359 34.99872 37938 ft 440 kts 304°
2026-05-04 13:16 27.49567 34.94867 37928 ft 440 kts 304°
2026-05-04 13:16 27.53907 34.89971 37921 ft 443 kts 307°
2026-05-04 13:17 27.58416 34.85235 37926 ft 443 kts 307°
2026-05-04 13:17 27.62893 34.80543 37923 ft 442 kts 307°
2026-05-04 13:18 27.67381 34.75804 37924 ft 442 kts 307°
2026-05-04 13:18 27.71857 34.71057 37931 ft 442 kts 307°
2026-05-04 13:19 27.76300 34.66338 37967 ft 442 kts 307°
2026-05-04 13:19 27.80776 34.61579 37938 ft 442 kts 307°
2026-05-04 13:20 27.85248 34.56821 37933 ft 441 kts 307°
2026-05-04 13:20 27.89706 34.52071 37941 ft 440 kts 307°
2026-05-04 13:21 27.94124 34.47359 37960 ft 440 kts 307°
2026-05-04 13:21 27.98575 34.42607 37934 ft 439 kts 306°
2026-05-04 13:22 28.02593 34.37540 37937 ft 429 kts 300°
2026-05-04 13:22 28.06351 34.32297 37950 ft 429 kts 300°
2026-05-04 13:23 28.10098 34.27078 37937 ft 430 kts 300°
2026-05-04 13:23 28.13885 34.21822 37972 ft 431 kts 300°
2026-05-04 13:24 28.17681 34.16552 37965 ft 431 kts 300°
2026-05-04 13:24 28.21470 34.11294 37948 ft 430 kts 300°
2026-05-04 13:25 28.27110 34.03456 37934 ft 429 kts 300°
2026-05-04 13:25 28.30852 33.98231 38033 ft 427 kts 300°
2026-05-04 13:26 28.34637 33.92957 38057 ft 432 kts 300°
2026-05-04 13:26 28.38452 33.87626 37981 ft 436 kts 300°
2026-05-04 13:27 28.42208 33.82381 37993 ft 427 kts 300°
2026-05-04 13:27 28.45939 33.77157 38003 ft 424 kts 300°
2026-05-04 13:28 28.49651 33.71946 37999 ft 424 kts 300°
2026-05-04 13:28 28.53399 33.66686 38061 ft 430 kts 300°
2026-05-04 13:29 28.57163 33.61386 38058 ft 431 kts 300°
2026-05-04 13:29 28.60904 33.56119 38020 ft 431 kts 300°
2026-05-04 13:30 28.64661 33.50823 38021 ft 429 kts 300°
2026-05-04 13:30 28.68402 33.45552 38008 ft 427 kts 300°
2026-05-04 13:31 28.72122 33.40308 38021 ft 424 kts 300°
2026-05-04 13:31 28.75795 33.35120 38023 ft 423 kts 300°
2026-05-04 13:32 28.79480 33.29905 38015 ft 422 kts 300°
2026-05-04 13:32 28.83163 33.24685 38013 ft 423 kts 300°
2026-05-04 13:33 28.86850 33.19453 38021 ft 424 kts 300°
2026-05-04 13:33 28.90522 33.14238 38037 ft 425 kts 300°
2026-05-04 13:34 28.94225 33.08973 38024 ft 426 kts 300°
2026-05-04 13:34 28.97932 33.03696 38022 ft 426 kts 300°
2026-05-04 13:35 29.03466 32.95805 38028 ft 426 kts 300°
2026-05-04 13:36 29.07174 32.90509 38021 ft 426 kts 300°
2026-05-04 13:36 29.10879 32.85210 38011 ft 427 kts 301°
2026-05-04 13:37 29.14585 32.79903 38026 ft 427 kts 301°
2026-05-04 13:37 29.17667 32.75484 38022 ft 428 kts 301°
2026-05-04 13:38 29.21982 32.69289 38024 ft 428 kts 301°
2026-05-04 13:38 29.25697 32.63949 38025 ft 429 kts 301°
2026-05-04 13:39 29.29409 32.58601 38027 ft 429 kts 300°
2026-05-04 13:39 29.32472 32.54146 38031 ft 428 kts 300°
2026-05-04 13:40 29.36741 32.47910 38046 ft 428 kts 300°
2026-05-04 13:40 29.40411 32.42550 38041 ft 427 kts 300°
2026-05-04 13:41 29.44072 32.37198 38047 ft 425 kts 300°
2026-05-04 13:41 29.47694 32.31893 38043 ft 424 kts 300°
2026-05-04 13:42 29.53138 32.23912 38042 ft 422 kts 300°
2026-05-04 13:42 29.56138 32.19504 38051 ft 421 kts 300°
2026-05-04 13:43 29.59741 32.14206 38057 ft 421 kts 300°
2026-05-04 13:43 29.63934 32.08030 38054 ft 422 kts 300°
2026-05-04 13:44 29.66963 32.03562 38068 ft 423 kts 300°
2026-05-04 13:44 29.70559 31.98254 38068 ft 424 kts 300°
2026-05-04 13:45 29.74191 31.92885 38062 ft 425 kts 300°
2026-05-04 13:45 29.78412 31.86636 38077 ft 426 kts 300°
2026-05-04 13:46 29.81388 31.82066 38072 ft 425 kts 299°
2026-05-04 13:46 29.84862 31.76629 38075 ft 424 kts 300°
2026-05-04 13:47 29.88383 31.71171 38062 ft 424 kts 302°
2026-05-04 13:47 29.90521 31.68766 38077 ft 438 kts 315°
2026-05-04 13:47 29.93129 31.66873 38079 ft 449 kts 323°
2026-05-04 13:48 29.96032 31.65423 38068 ft 463 kts 334°
2026-05-04 13:48 29.99224 31.64652 38090 ft 472 kts 341°
2026-05-04 13:48 30.05720 31.63591 38081 ft 476 kts 342°
2026-05-04 13:49 30.12288 31.62539 38058 ft 477 kts 342°
2026-05-04 13:49 30.18842 31.61402 38056 ft 476 kts 341°
2026-05-04 13:50 30.25392 31.60223 38055 ft 476 kts 341°
2026-05-04 13:50 30.31898 31.59045 38053 ft 476 kts 341°
2026-05-04 13:51 30.38439 31.57863 38056 ft 475 kts 341°
2026-05-04 13:51 30.44967 31.56685 38049 ft 474 kts 341°
2026-05-04 13:52 30.54682 31.54927 38050 ft 472 kts 341°
2026-05-04 13:53 30.61168 31.53751 38074 ft 472 kts 341°
2026-05-04 13:53 30.67657 31.52572 38059 ft 471 kts 341°
2026-05-04 13:54 30.77360 31.50809 38056 ft 470 kts 341°
2026-05-04 13:55 30.86991 31.49061 38060 ft 469 kts 341°
2026-05-04 13:55 30.96653 31.47302 38054 ft 468 kts 341°
2026-05-04 13:56 31.03087 31.46128 38059 ft 468 kts 341°
2026-05-04 13:57 31.12709 31.44369 38061 ft 470 kts 341°
2026-05-04 13:58 31.25633 31.42003 38062 ft 471 kts 341°
2026-05-04 13:58 31.35340 31.40188 38103 ft 471 kts 341°
2026-05-04 13:59 31.41785 31.38976 38060 ft 472 kts 341°
2026-05-04 14:00 31.51527 31.37148 38055 ft 473 kts 341°
2026-05-04 14:00 31.61377 31.35719 38073 ft 479 kts 346°
2026-05-04 14:01 31.67987 31.35094 38060 ft 480 kts 346°
2026-05-04 14:02 31.77974 31.34094 38042 ft 480 kts 346°
2026-05-04 14:02 31.83911 31.33478 38044 ft 480 kts 346°
2026-05-04 14:03 31.90568 31.32787 38040 ft 480 kts 346°
2026-05-04 14:03 31.97180 31.32094 38042 ft 480 kts 346°
2026-05-04 14:04 32.07161 31.31047 38082 ft 480 kts 346°
2026-05-04 14:04 32.13837 31.30351 38046 ft 482 kts 346°
2026-05-04 14:05 32.23825 31.29291 38033 ft 483 kts 345°
2026-05-04 14:06 32.30529 31.28562 38028 ft 484 kts 345°
2026-05-04 14:06 32.37246 31.27832 38026 ft 485 kts 346°
2026-05-04 14:07 32.43953 31.27106 38018 ft 484 kts 346°
2026-05-04 14:07 32.50612 31.26383 38024 ft 483 kts 346°
2026-05-04 14:08 32.57167 31.25148 38055 ft 469 kts 336°
2026-05-04 14:08 32.63207 31.22563 38013 ft 454 kts 326°
2026-05-04 14:09 32.71610 31.17592 38003 ft 448 kts 325°
2026-05-04 14:10 32.79917 31.12686 38004 ft 446 kts 325°
2026-05-04 14:10 32.85487 31.09421 38015 ft 447 kts 325°
2026-05-04 14:11 32.91074 31.06142 38004 ft 448 kts 325°
2026-05-04 14:11 32.99451 31.01218 37992 ft 450 kts 325°
2026-05-04 14:12 33.05391 30.98687 37995 ft 474 kts 346°
2026-05-04 14:12 33.12099 31.00063 37994 ft 514 kts 17°
2026-05-04 14:13 33.15215 31.02277 37977 ft 532 kts 33°
2026-05-04 14:13 33.17829 31.05462 38019 ft 541 kts 44°
2026-05-04 14:13 33.20222 31.08950 37963 ft 545 kts 46°
2026-05-04 14:14 33.24831 31.16059 37991 ft 545 kts 47°
2026-05-04 14:14 33.31948 31.26658 37966 ft 544 kts 45°
2026-05-04 14:15 33.41572 31.40556 37963 ft 541 kts 45°
2026-05-04 14:16 33.48702 31.50917 37958 ft 539 kts 45°
2026-05-04 14:17 33.55834 31.61323 37947 ft 538 kts 45°
2026-05-04 14:18 33.62965 31.71754 37940 ft 540 kts 45°
2026-05-04 14:19 33.72442 31.85664 37935 ft 541 kts 45°
2026-05-04 14:19 33.77202 31.92672 37940 ft 542 kts 46°
2026-05-04 14:20 33.81971 31.99707 37922 ft 543 kts 46°
2026-05-04 14:20 33.86708 32.06708 37920 ft 543 kts 46°
2026-05-04 14:21 33.93771 32.17388 37889 ft 542 kts 47°
2026-05-04 14:21 33.96083 32.20929 37636 ft 534 kts 46°
2026-05-04 14:21 33.98367 32.24428 37086 ft 530 kts 46°
2026-05-04 14:22 34.00655 32.27923 36215 ft 533 kts 46°
2026-05-04 14:22 34.02965 32.31444 35335 ft 538 kts 46°
2026-05-04 14:22 34.05264 32.34948 34497 ft 541 kts 46°
2026-05-04 14:22 34.07597 32.38510 33650 ft 543 kts 46°
2026-05-04 14:23 34.12293 32.45698 31623 ft 548 kts 46°
2026-05-04 14:23 34.14655 32.49320 30576 ft 551 kts 46°
2026-05-04 14:23 34.17032 32.52970 29523 ft 553 kts 46°
2026-05-04 14:24 34.19391 32.56599 28833 ft 545 kts 47°
2026-05-04 14:24 34.21702 32.60164 28460 ft 531 kts 47°
2026-05-04 14:24 34.23949 32.63631 28028 ft 519 kts 47°
2026-05-04 14:24 34.26163 32.67039 27408 ft 512 kts 47°
2026-05-04 14:25 34.28349 32.70406 26809 ft 506 kts 48°
2026-05-04 14:25 34.32590 32.76970 25760 ft 491 kts 49°
2026-05-04 14:25 34.34670 32.80210 25246 ft 484 kts 49°
2026-05-04 14:26 34.36715 32.83399 24806 ft 475 kts 49°
2026-05-04 14:26 34.38723 32.86531 24373 ft 466 kts 50°
2026-05-04 14:26 34.40699 32.89612 23829 ft 461 kts 49°
2026-05-04 14:26 34.42652 32.92683 23122 ft 460 kts 51°
2026-05-04 14:27 34.44367 32.95941 22446 ft 458 kts 59°
2026-05-04 14:27 34.45733 32.99412 21878 ft 455 kts 65°
2026-05-04 14:27 34.46770 33.02963 21248 ft 452 kts 72°
2026-05-04 14:27 34.47572 33.06640 20568 ft 450 kts 73°
2026-05-04 14:28 34.48358 33.10293 20034 ft 445 kts 73°
2026-05-04 14:28 34.49141 33.13908 19449 ft 443 kts 73°
2026-05-04 14:28 34.49926 33.17503 18849 ft 440 kts 73°
2026-05-04 14:28 34.50715 33.21083 18250 ft 438 kts 73°
2026-05-04 14:29 34.52284 33.28172 17043 ft 432 kts 73°
2026-05-04 14:29 34.53822 33.35121 15897 ft 427 kts 73°
2026-05-04 14:30 34.54587 33.38590 15327 ft 424 kts 73°
2026-05-04 14:30 34.55347 33.42037 14794 ft 422 kts 73°
2026-05-04 14:30 34.56833 33.48803 14281 ft 403 kts 73°
2026-05-04 14:31 34.57541 33.52036 14215 ft 390 kts 73°
2026-05-04 14:31 34.58887 33.58189 14056 ft 366 kts 73°
2026-05-04 14:32 34.60144 33.63941 13910 ft 345 kts 73°
2026-05-04 14:32 34.60749 33.66718 13821 ft 336 kts 73°
2026-05-04 14:32 34.61340 33.69428 13638 ft 330 kts 74°
2026-05-04 14:32 34.62136 33.71999 13163 ft 325 kts 53°
2026-05-04 14:33 34.63670 33.73923 12772 ft 314 kts 28°
2026-05-04 14:33 34.65589 33.75053 12491 ft 301 kts 10°
2026-05-04 14:33 34.67564 33.75683 12206 ft 296 kts
2026-05-04 14:33 34.69564 33.76252 11913 ft 295 kts
2026-05-04 14:34 34.71558 33.76817 11643 ft 293 kts
2026-05-04 14:34 34.73529 33.77384 11424 ft 289 kts
2026-05-04 14:34 34.75480 33.77957 11135 ft 288 kts
2026-05-04 14:34 34.77426 33.78535 10829 ft 288 kts
2026-05-04 14:35 34.79334 33.79109 10290 ft 279 kts
2026-05-04 14:35 34.81222 33.79676 9533 ft 280 kts
2026-05-04 14:35 34.83084 33.80235 8760 ft 278 kts
2026-05-04 14:35 34.84952 33.80798 8078 ft 275 kts
2026-05-04 14:36 34.86787 33.81352 7493 ft 267 kts
2026-05-04 14:36 34.88541 33.81883 7154 ft 252 kts
2026-05-04 14:36 34.90207 33.82387 6760 ft 242 kts
2026-05-04 14:36 34.91808 33.82870 6557 ft 235 kts
2026-05-04 14:37 34.93410 33.83151 6431 ft 231 kts 352°
2026-05-04 14:37 34.94966 33.82784 5970 ft 226 kts 331°
2026-05-04 14:37 34.96257 33.81752 5307 ft 219 kts 311°
2026-05-04 14:37 34.97126 33.80314 4695 ft 211 kts 294°
2026-05-04 14:38 34.97615 33.78641 4012 ft 209 kts 281°
2026-05-04 14:38 34.97703 33.76886 3340 ft 206 kts 266°
2026-05-04 14:38 34.97281 33.75283 2683 ft 194 kts 245°
2026-05-04 14:38 34.96552 33.73967 2192 ft 175 kts 239°
2026-05-04 14:39 34.95797 33.72809 2034 ft 175 kts 238°
2026-05-04 14:39 34.95024 33.71734 1783 ft 160 kts 234°
2026-05-04 14:39 34.94310 33.70846 1613 ft 137 kts 229°
2026-05-04 14:40 34.92992 33.69230 1295 ft 139 kts 229°
2026-05-04 14:40 34.92316 33.68406 1087 ft 137 kts 229°
2026-05-04 14:40 34.91638 33.67584 938 ft 138 kts 227°
2026-05-04 14:40 34.90959 33.66751 739 ft 141 kts 228°
2026-05-04 14:41 34.90266 33.65907 637 ft 140 kts 229°
2026-05-04 14:41 34.89567 33.65064 376 ft 141 kts 229°
2026-05-04 14:41 34.88141 33.63330 53 ft 144 kts 228°
2026-05-04 14:42 34.86979 33.61910 29 ft 78 kts 225°
2026-05-04 14:42 34.86734 33.61611 25 ft 33 kts 225°
2026-05-04 14:42 34.86623 33.61424 25 ft 18 kts 284°
2026-05-04 14:43 34.86658 33.61360 28 ft 8 kts 313°
2026-05-04 14:43 34.86695 33.61314 27 ft 8 kts 318°
2026-05-04 14:43 34.86749 33.61295 27 ft 9 kts 12°
2026-05-04 14:43 34.86807 33.61340 25 ft 10 kts 42°
2026-05-04 14:44 34.86870 33.61375 26 ft 11 kts 346°
2026-05-04 14:44 34.86932 33.61323 26 ft 11 kts 319°
2026-05-04 14:44 34.86950 33.61291 29 ft 4 kts 294°
2026-05-04 14:44 34.86958 33.61255 28 ft 5 kts 289°
2026-05-04 14:45 34.86969 33.61214 29 ft 5 kts 279°
2026-05-04 14:45 34.86961 33.61167 31 ft 6 kts 248°
2026-05-04 14:45 34.86957 33.61158 31 ft 0 kts 233°